START_TIME,STEP,MOV.,M15,t_acc.,M20,t_acc.
1979-07-11 09:00:44.270 ,1,0,0.,24.0,0.,24.0
1979-07-11 09:01:08.270 ,1,0,0.,24.0,0.,24.0
1979-07-11 09:01:32.270 ,1,0,0.,24.0,0.,24.0
1979-07-11 09:01:56.270 ,2,1,0.,24.0,0.,24.0
1979-07-11 09:02:20.270 ,2,0,0.,24.0,0.,24.0
1979-07-11 09:02:44.270 ,2,0,0.,24.0,0.,24.0
1979-07-11 09:03:08.270 ,2,0,0.,24.0,0.,24.0
1979-07-11 09:03:32.270 ,2,0,0.,24.0,0.,24.0
1979-07-11 09:03:56.270 ,2,0,0.,24.0,0.,24.0
1979-07-11 09:04:20.270 ,3,1,0.,24.0,0.,24.0
1979-07-11 09:04:44.270 ,3,0,0.,24.0,0.,24.0
1979-07-11 09:05:08.270 ,3,0,0.,24.0,0.,24.0
1979-07-11 09:05:32.270 ,3,0,0.,24.0,0.,24.0
1979-07-11 09:05:56.270 ,3,0,0.,24.0,0.,24.0
1979-07-11 09:06:20.270 ,3,0,0.,24.0,0.,24.0
1979-07-11 09:06:44.270 ,4,1,0.,24.0,0.,24.0
1979-07-11 09:07:08.270 ,4,0,0.,24.0,0.,24.0
1979-07-11 09:07:32.270 ,4,0,0.,24.0,0.,24.0
1979-07-11 09:07:56.270 ,4,0,0.,24.0,0.,24.0
1979-07-11 09:08:20.270 ,4,0,0.,24.0,0.,24.0
1979-07-11 09:08:44.270 ,4,0,0.,24.0,0.,24.0
1979-07-11 09:09:08.270 ,5,1,0.,24.0,0.,24.0
1979-07-11 09:09:32.270 ,5,0,0.,24.0,0.,24.0
1979-07-11 09:09:56.270 ,5,0,0.,24.0,0.,24.0
1979-07-11 09:10:20.270 ,5,0,0.,24.0,0.,24.0
1979-07-11 09:10:44.270 ,5,0,0.,24.0,0.,24.0
1979-07-11 09:11:08.270 ,5,0,0.,24.0,0.,24.0
1979-07-11 09:11:32.270 ,6,1,0.,24.0,0.,24.0
1979-07-11 09:11:56.270 ,6,0,0.,24.0,0.,24.0
1979-07-11 09:12:20.270 ,6,0,0.,24.0,0.,24.0
1979-07-11 09:12:44.270 ,6,0,0.,24.0,0.,24.0
1979-07-11 09:13:08.270 ,6,0,0.,24.0,0.,24.0
1979-07-11 09:13:32.270 ,6,0,0.,24.0,0.,24.0
1979-07-11 09:13:56.270 ,7,1,0.,24.0,0.,24.0
1979-07-11 09:14:20.270 ,7,0,0.,24.0,0.,24.0
1979-07-11 09:14:44.270 ,7,0,0.,24.0,0.,24.0
1979-07-11 09:15:08.270 ,7,0,0.,24.0,0.,24.0
1979-07-11 09:15:32.270 ,7,0,0.,24.0,0.,24.0
1979-07-11 09:15:56.270 ,7,0,0.,24.0,0.,24.0
1979-07-11 09:16:20.270 ,7,1,0.,24.0,0.,24.0
1979-07-11 09:16:44.270 ,7,0,0.,24.0,0.,24.0
1979-07-11 09:17:08.270 ,7,0,0.,24.0,0.,24.0
1979-07-11 09:17:32.270 ,7,0,0.,24.0,0.,24.0
1979-07-11 09:17:56.270 ,7,0,0.,24.0,0.,24.0
1979-07-11 09:18:20.270 ,7,0,0.,24.0,0.,24.0
1979-07-11 09:18:44.270 ,6,1,0.,24.0,0.,24.0
1979-07-11 09:19:08.270 ,6,0,0.,24.0,0.,24.0
1979-07-11 09:19:32.270 ,6,0,0.,24.0,0.,24.0
1979-07-11 09:19:56.270 ,6,0,0.,24.0,0.,24.0
1979-07-11 09:20:20.270 ,6,0,0.,24.0,0.,24.0
1979-07-11 09:20:44.270 ,6,0,0.,24.0,0.,24.0
1979-07-11 09:21:08.270 ,5,1,0.,24.0,0.,24.0
1979-07-11 09:21:32.270 ,5,0,0.,24.0,0.,24.0
1979-07-11 09:21:56.270 ,5,0,0.,24.0,0.,24.0
1979-07-11 09:22:20.270 ,5,0,0.,24.0,0.,24.0
1979-07-11 09:22:44.270 ,5,0,0.,24.0,0.,24.0
1979-07-11 09:23:08.270 ,5,0,0.,24.0,0.,24.0
1979-07-11 09:23:32.270 ,4,1,0.,24.0,0.,24.0
1979-07-11 09:23:56.270 ,4,0,0.,24.0,0.,24.0
1979-07-11 09:24:20.270 ,4,0,0.,24.0,0.,24.0
1979-07-11 09:24:44.270 ,4,0,0.,24.0,0.,24.0
1979-07-11 09:25:08.270 ,4,0,0.,24.0,0.,24.0
1979-07-11 09:25:32.270 ,4,0,0.,24.0,0.,24.0
1979-07-11 09:25:56.270 ,3,1,0.,24.0,0.,24.0
1979-07-11 09:26:20.270 ,3,0,0.,24.0,0.,24.0
1979-07-11 09:26:44.270 ,0,0,0.,24.0,0.,24.0
1979-07-11 09:27:08.270 ,0,0,,0,,0
1979-07-11 09:27:32.270 ,0,0,0.,24.0,0.,24.0
1979-07-11 09:27:56.270 ,0,0,0.,24.0,0.,24.0
1979-07-11 09:28:20.270 ,2,1,0.,24.0,0.,24.0
1979-07-11 09:28:44.270 ,2,0,0.,24.0,0.,24.0
1979-07-11 09:29:08.270 ,2,0,0.,24.0,0.,24.0
1979-07-11 09:29:32.270 ,2,0,0.,24.0,0.,24.0
1979-07-11 09:29:56.270 ,2,0,0.,24.0,0.,24.0
1979-07-11 09:30:20.270 ,2,0,0.,24.0,0.,24.0
1979-07-11 09:30:44.270 ,1,1,0.,24.0,0.,24.0
1979-07-11 09:31:08.270 ,1,0,0.,24.0,0.,24.0
1979-07-11 09:31:32.270 ,1,0,0.,24.0,0.,24.0
1979-07-11 09:31:56.270 ,1,0,0.,24.0,0.,24.0
1979-07-11 09:32:20.270 ,1,0,0.,24.0,0.,24.0
1979-07-11 09:32:44.270 ,1,0,0.,24.0,0.,24.0
1979-07-11 09:33:08.270 ,0,1,0.,24.0,0.,24.0
1979-07-11 09:33:32.270 ,0,0,0.,24.0,0.,24.0
1979-07-11 09:33:56.270 ,0,0,0.,24.0,0.,24.0
1979-07-11 09:34:20.270 ,0,0,0.,24.0,0.,24.0
1979-07-11 09:34:44.270 ,0,0,0.,24.0,0.,24.0
1979-07-11 09:35:08.270 ,0,0,0.,24.0,0.,24.0
1979-07-11 09:35:32.270 ,0,1,0.,24.0,0.,24.0
1979-07-11 09:35:56.270 ,0,0,0.,24.0,0.,24.0
1979-07-11 09:36:20.270 ,0,0,0.,24.0,0.,24.0
1979-07-11 09:36:44.270 ,0,0,0.,24.0,0.,24.0
1979-07-11 09:37:08.270 ,0,0,0.,24.0,0.,24.0
1979-07-11 09:37:32.270 ,0,0,0.,24.0,0.,24.0
1979-07-11 09:37:56.270 ,1,1,0.,24.0,0.,24.0
1979-07-11 09:38:20.270 ,1,0,0.,24.0,0.,24.0
1979-07-11 09:38:44.270 ,1,0,0.,24.0,0.,24.0
1979-07-11 09:39:08.270 ,1,0,0.,24.0,0.,24.0
1979-07-11 09:39:32.270 ,1,0,0.,24.0,0.,24.0
1979-07-11 09:39:56.270 ,1,0,0.,24.0,0.,24.0
1979-07-11 09:40:20.270 ,2,1,0.,24.0,0.,24.0
1979-07-11 09:40:44.270 ,2,0,0.,24.0,0.,24.0
1979-07-11 09:41:08.270 ,2,0,0.,24.0,0.,24.0
1979-07-11 09:41:32.270 ,2,0,0.,24.0,0.,24.0
1979-07-11 09:41:56.270 ,2,0,0.,24.0,0.,24.0
1979-07-11 09:42:20.270 ,2,0,0.,24.0,0.,24.0
1979-07-11 09:42:44.270 ,3,1,0.,24.0,0.,24.0
1979-07-11 09:43:08.270 ,3,0,0.,24.0,0.,24.0
1979-07-11 09:43:32.270 ,3,0,0.,24.0,0.,24.0
1979-07-11 09:43:56.270 ,3,0,0.,24.0,0.,24.0
1979-07-11 09:44:20.270 ,3,0,0.,24.0,0.,24.0
1979-07-11 09:44:44.270 ,3,0,0.,24.0,0.,24.0
1979-07-11 09:45:08.270 ,4,1,0.,24.0,0.,24.0
1979-07-11 09:45:32.270 ,4,0,0.,24.0,0.,24.0
1979-07-11 09:45:56.270 ,4,0,0.,24.0,0.,24.0
1979-07-11 09:46:20.270 ,4,0,0.,24.0,0.,24.0
1979-07-11 09:46:44.270 ,4,0,0.,24.0,0.,24.0
1979-07-11 09:47:08.270 ,4,0,0.,24.0,0.,24.0
1979-07-11 09:47:32.270 ,5,1,0.,24.0,0.,24.0
1979-07-11 09:47:56.270 ,5,0,0.,24.0,0.,24.0
1979-07-11 09:48:20.270 ,5,0,0.,24.0,0.,24.0
1979-07-11 09:48:44.270 ,5,0,0.,24.0,0.,24.0
1979-07-11 09:49:08.270 ,5,0,0.,24.0,0.,24.0
1979-07-11 09:49:32.270 ,5,0,0.,24.0,0.,24.0
1979-07-11 09:49:56.270 ,6,1,0.,24.0,0.,24.0
1979-07-11 09:50:20.270 ,6,0,0.,24.0,0.,24.0
1979-07-11 09:50:44.270 ,6,0,0.,24.0,0.,24.0
1979-07-11 09:51:08.270 ,6,0,0.,24.0,0.,24.0
1979-07-11 09:51:32.270 ,6,0,0.,24.0,0.,24.0
1979-07-11 09:51:56.270 ,6,0,0.,24.0,0.,24.0
1979-07-11 09:52:20.270 ,7,1,0.,24.0,0.,24.0
1979-07-11 09:52:44.270 ,7,0,0.,24.0,0.,24.0
1979-07-11 09:53:08.270 ,7,0,0.,24.0,0.,24.0
1979-07-11 09:53:32.270 ,7,0,0.,24.0,0.,24.0
1979-07-11 09:53:56.270 ,7,0,0.,24.0,0.,24.0
1979-07-11 09:54:20.270 ,7,0,0.,24.0,0.,24.0
1979-07-11 09:54:44.270 ,7,1,0.,24.0,0.,24.0
1979-07-11 09:55:08.270 ,7,0,0.,24.0,0.,24.0
1979-07-11 09:55:32.270 ,7,0,0.,24.0,0.,24.0
1979-07-11 09:55:56.270 ,7,0,0.,24.0,0.,24.0
1979-07-11 09:56:20.270 ,7,0,0.,24.0,0.,24.0
1979-07-11 09:56:44.270 ,7,0,0.,24.0,0.,24.0
1979-07-11 09:57:08.270 ,6,1,0.,24.0,0.,24.0
1979-07-11 09:57:32.270 ,6,0,0.,24.0,0.,24.0
1979-07-11 09:57:56.270 ,6,0,0.,24.0,0.,24.0
1979-07-11 09:58:20.270 ,6,0,0.,24.0,0.,24.0
1979-07-11 09:58:44.270 ,6,0,0.,24.0,0.,24.0
1979-07-11 09:59:08.270 ,6,0,0.,24.0,0.,24.0
1979-07-11 09:59:32.270 ,5,1,0.,24.0,0.,24.0
1979-07-11 09:59:56.270 ,5,0,0.,24.0,0.,24.0
1979-07-11 10:00:20.270 ,5,0,0.,24.0,0.,24.0
1979-07-11 10:00:44.270 ,5,0,0.,24.0,0.,24.0
1979-07-11 10:01:08.270 ,5,0,0.,24.0,0.,24.0
1979-07-11 10:01:32.270 ,5,0,0.,24.0,0.,24.0
1979-07-11 10:01:56.270 ,4,1,0.,24.0,0.,24.0
1979-07-11 10:02:20.270 ,4,0,0.,24.0,0.,24.0
1979-07-11 10:02:44.270 ,4,0,0.,24.0,0.,24.0
1979-07-11 10:03:08.270 ,4,0,0.,24.0,0.,24.0
1979-07-11 10:03:32.270 ,4,0,0.,24.0,0.,24.0
1979-07-11 10:03:56.270 ,4,0,0.,24.0,0.,24.0
1979-07-11 10:04:20.270 ,3,1,0.,24.0,0.,24.0
1979-07-11 10:04:44.270 ,3,0,0.,24.0,0.,24.0
1979-07-11 10:05:08.270 ,3,0,0.,24.0,0.,24.0
1979-07-11 10:05:32.270 ,3,0,0.,24.0,0.,24.0
1979-07-11 10:05:56.270 ,3,0,0.,24.0,0.,24.0
1979-07-11 10:06:20.270 ,3,0,0.,24.0,0.,24.0
1979-07-11 10:06:44.270 ,2,1,0.,24.0,0.,24.0
1979-07-11 10:07:08.270 ,2,0,0.,24.0,0.,24.0
1979-07-11 10:07:32.270 ,2,0,0.,24.0,0.,24.0
1979-07-11 10:07:56.270 ,2,0,0.,24.0,0.,24.0
1979-07-11 10:08:20.270 ,2,0,0.,24.0,0.,24.0
1979-07-11 10:08:44.270 ,2,0,0.,24.0,0.,24.0
1979-07-11 10:09:08.270 ,1,1,0.,24.0,0.,24.0
1979-07-11 10:09:32.270 ,1,0,0.,24.0,0.,24.0
1979-07-11 10:09:56.270 ,1,0,0.,24.0,0.,24.0
1979-07-11 10:10:20.270 ,1,0,0.,24.0,0.,24.0
1979-07-11 10:10:44.270 ,1,0,0.,24.0,0.,24.0
1979-07-11 10:11:08.270 ,1,0,0.,24.0,0.,24.0
1979-07-11 10:11:32.270 ,0,1,0.,24.0,0.,24.0
1979-07-11 10:11:56.270 ,0,0,0.,24.0,0.,24.0
1979-07-11 10:12:20.270 ,0,0,0.,24.0,0.,24.0
1979-07-11 10:12:44.270 ,0,0,0.,24.0,0.,24.0
1979-07-11 10:13:08.270 ,0,0,0.,24.0,0.,24.0
1979-07-11 10:13:32.270 ,0,0,0.,24.0,0.,24.0
1979-07-11 10:13:56.270 ,0,1,0.,24.0,0.,24.0
1979-07-11 10:14:20.270 ,0,0,0.,24.0,0.,24.0
1979-07-11 10:14:44.270 ,0,0,0.,24.0,0.,24.0
1979-07-11 10:15:08.270 ,0,0,0.,24.0,0.,24.0
1979-07-11 10:15:32.270 ,0,0,0.,24.0,0.,24.0
1979-07-11 10:15:56.270 ,0,0,0.,24.0,0.,24.0
1979-07-11 10:16:20.270 ,1,1,0.,24.0,0.,24.0
1979-07-11 10:16:44.270 ,1,0,0.,24.0,0.,24.0
1979-07-11 10:17:08.270 ,1,0,0.,24.0,0.,24.0
1979-07-11 10:17:32.270 ,1,0,0.,24.0,0.,24.0
1979-07-11 10:17:56.270 ,1,0,0.,24.0,0.,24.0
1979-07-11 10:18:20.270 ,1,0,0.,24.0,0.,24.0
1979-07-11 10:18:44.270 ,2,1,0.,24.0,0.,24.0
1979-07-11 10:19:08.270 ,2,0,0.,24.0,0.,24.0
1979-07-11 10:19:32.270 ,2,0,0.,24.0,0.,24.0
1979-07-11 10:19:56.270 ,2,0,0.,24.0,0.,24.0
1979-07-11 10:20:20.270 ,2,0,0.,24.0,0.,24.0
1979-07-11 10:20:44.270 ,2,0,0.,24.0,0.,24.0
1979-07-11 10:21:08.270 ,3,1,0.,24.0,0.,24.0
1979-07-11 10:21:32.270 ,3,0,0.,24.0,0.,24.0
1979-07-11 10:21:56.270 ,3,0,0.,24.0,0.,24.0
1979-07-11 10:22:20.270 ,3,0,0.,24.0,0.,24.0
1979-07-11 10:22:44.270 ,3,0,0.,24.0,0.,24.0
1979-07-11 10:23:08.270 ,3,0,0.,24.0,0.,24.0
1979-07-11 10:23:32.270 ,4,1,0.,24.0,0.,24.0
1979-07-11 10:23:56.270 ,4,0,0.,24.0,0.,24.0
1979-07-11 10:24:20.270 ,4,0,0.,24.0,0.,24.0
1979-07-11 10:24:44.270 ,4,0,0.,24.0,0.,24.0
1979-07-11 10:25:08.270 ,4,0,0.,24.0,0.,24.0
1979-07-11 10:25:32.270 ,4,0,0.,24.0,0.,24.0
1979-07-11 10:25:56.270 ,5,1,0.,24.0,0.,24.0
1979-07-11 10:26:20.270 ,5,0,0.,24.0,0.,24.0
1979-07-11 10:26:44.270 ,5,0,0.,24.0,0.,24.0
1979-07-11 10:27:08.270 ,5,0,0.,24.0,0.,24.0
1979-07-11 10:27:32.270 ,5,0,0.,24.0,0.,24.0
1979-07-11 10:27:56.270 ,5,0,0.,24.0,0.,24.0
1979-07-11 10:28:20.270 ,6,1,0.,24.0,0.,24.0
1979-07-11 10:28:44.270 ,6,0,0.,24.0,0.,24.0
1979-07-11 10:29:08.270 ,6,0,0.,24.0,0.,24.0
1979-07-11 10:29:32.270 ,6,0,0.,24.0,0.,24.0
1979-07-11 10:29:56.270 ,6,0,0.,24.0,0.,24.0
1979-07-11 10:30:20.270 ,6,0,0.,24.0,0.,24.0
1979-07-11 10:30:44.270 ,7,1,0.,24.0,0.,24.0
1979-07-11 10:31:08.270 ,7,0,0.,24.0,0.,24.0
1979-07-11 10:31:32.270 ,7,0,0.,24.0,0.,24.0
1979-07-11 10:31:56.270 ,7,0,0.,24.0,0.,24.0
1979-07-11 10:32:20.270 ,7,0,0.,24.0,0.,24.0
1979-07-11 10:32:44.270 ,7,0,0.,24.0,0.,24.0
1979-07-11 10:33:08.270 ,7,1,0.,24.0,0.,24.0
1979-07-11 10:33:32.270 ,7,0,0.,24.0,0.,24.0
1979-07-11 10:33:56.270 ,7,0,0.,24.0,0.,24.0
1979-07-11 10:34:20.260 ,7,0,0.,24.0,0.,24.0
1979-07-11 10:34:44.260 ,7,0,0.,24.0,0.,24.0
1979-07-11 10:35:08.260 ,7,0,0.,24.0,0.,24.0
1979-07-11 10:35:32.260 ,6,1,0.,24.0,0.,24.0
1979-07-11 10:35:56.260 ,6,0,0.,24.0,0.,24.0
1979-07-11 10:36:20.260 ,6,0,0.,24.0,0.,24.0
1979-07-11 10:36:44.260 ,6,0,0.,24.0,0.,24.0
1979-07-11 10:37:08.260 ,6,0,0.,24.0,0.,24.0
1979-07-11 10:37:32.260 ,6,0,0.,24.0,0.,24.0
1979-07-11 10:37:56.260 ,5,1,0.,24.0,0.,24.0
1979-07-11 10:38:20.260 ,5,0,0.,24.0,0.,24.0
1979-07-11 10:38:44.260 ,5,0,0.,24.0,0.,24.0
1979-07-11 10:39:08.260 ,5,0,0.,24.0,0.,24.0
1979-07-11 10:39:32.260 ,5,0,0.,24.0,0.,24.0
1979-07-11 10:39:56.260 ,5,0,0.,24.0,0.,24.0
1979-07-11 10:40:20.260 ,4,1,0.,24.0,0.,24.0
1979-07-11 10:40:44.260 ,4,0,0.,24.0,0.,24.0
1979-07-11 10:41:08.260 ,4,0,0.,24.0,0.,24.0
1979-07-11 10:41:32.260 ,4,0,0.,24.0,0.,24.0
1979-07-11 10:41:56.260 ,4,0,0.,24.0,0.,24.0
1979-07-11 10:42:20.260 ,4,0,0.,24.0,0.,24.0
1979-07-11 10:42:44.260 ,3,1,0.,24.0,0.,24.0
1979-07-11 10:43:08.260 ,3,0,0.,24.0,0.,24.0
1979-07-11 10:43:32.260 ,3,0,0.,24.0,0.,24.0
1979-07-11 10:43:56.260 ,3,0,0.,24.0,0.,24.0
1979-07-11 10:44:20.260 ,3,0,0.,24.0,0.,24.0
1979-07-11 10:44:44.260 ,3,0,0.,24.0,0.,24.0
1979-07-11 10:45:08.260 ,2,1,0.,24.0,0.,24.0
1979-07-11 10:45:32.260 ,2,0,0.,24.0,0.,24.0
1979-07-11 10:45:56.260 ,2,0,0.,24.0,0.,24.0
1979-07-11 10:46:20.260 ,2,0,0.,24.0,0.,24.0
1979-07-11 10:46:44.260 ,2,0,0.,24.0,0.,24.0
1979-07-11 10:47:08.260 ,2,0,0.,24.0,0.,24.0
1979-07-11 10:47:32.260 ,1,1,0.,24.0,0.,24.0
1979-07-11 10:47:56.260 ,1,0,0.,24.0,0.,24.0
1979-07-11 10:48:20.260 ,1,0,0.,24.0,0.,24.0
1979-07-11 10:48:44.260 ,1,0,0.,24.0,0.,24.0
1979-07-11 10:49:08.260 ,1,0,0.,24.0,0.,24.0
1979-07-11 10:49:32.260 ,1,0,0.,24.0,0.,24.0
1979-07-11 10:49:56.260 ,0,1,0.,24.0,0.,24.0
1979-07-11 10:50:20.260 ,0,0,0.,24.0,0.,24.0
1979-07-11 10:50:44.260 ,0,0,0.,24.0,0.,24.0
1979-07-11 10:51:08.260 ,0,0,0.,24.0,0.,24.0
1979-07-11 10:51:32.260 ,0,0,0.,24.0,0.,24.0
1979-07-11 10:51:56.260 ,0,0,0.,24.0,0.,24.0
1979-07-11 10:52:20.260 ,0,1,0.,24.0,0.,24.0
1979-07-11 10:52:44.260 ,0,0,0.,24.0,0.,24.0
1979-07-11 10:53:08.260 ,0,0,0.,24.0,0.,24.0
1979-07-11 10:53:32.260 ,0,0,0.,24.0,0.,24.0
1979-07-11 10:53:56.260 ,0,0,0.,24.0,0.,24.0
1979-07-11 10:54:20.260 ,0,0,0.,24.0,0.,24.0
1979-07-11 10:54:44.260 ,1,1,0.,24.0,0.,24.0
1979-07-11 10:55:08.260 ,1,0,0.,24.0,0.,24.0
1979-07-11 10:55:32.260 ,1,0,0.,24.0,0.,24.0
1979-07-11 10:55:56.260 ,1,0,0.,24.0,0.,24.0
1979-07-11 10:56:20.260 ,1,0,0.,24.0,0.,24.0
1979-07-11 10:56:44.260 ,1,0,0.,24.0,0.,24.0
1979-07-11 10:57:08.260 ,2,1,0.,24.0,0.,24.0
1979-07-11 10:57:32.260 ,2,0,0.,24.0,0.,24.0
1979-07-11 10:57:56.260 ,2,0,0.,24.0,0.,24.0
1979-07-11 10:58:20.260 ,2,0,0.,24.0,0.,24.0
1979-07-11 10:58:44.260 ,2,0,0.,24.0,0.,24.0
1979-07-11 10:59:08.260 ,2,0,0.,24.0,0.,24.0
1979-07-11 10:59:32.260 ,3,1,0.,24.0,0.,24.0
1979-07-11 10:59:56.260 ,3,0,0.,24.0,0.,24.0
1979-07-11 11:00:20.260 ,3,0,0.,24.0,0.,24.0
1979-07-11 11:00:44.260 ,3,0,0.,24.0,0.,24.0
1979-07-11 11:01:08.260 ,3,0,0.,24.0,0.,24.0
1979-07-11 11:01:32.260 ,3,0,0.,24.0,0.,24.0
1979-07-11 11:01:56.260 ,4,1,0.,24.0,0.,24.0
1979-07-11 11:02:20.260 ,4,0,0.,24.0,0.,24.0
1979-07-11 11:02:44.260 ,4,0,0.,24.0,0.,24.0
1979-07-11 11:03:08.260 ,4,0,0.,24.0,0.,24.0
1979-07-11 11:03:32.260 ,4,0,0.,24.0,0.,24.0
1979-07-11 11:03:56.260 ,4,0,0.,24.0,0.,24.0
1979-07-11 11:04:20.260 ,5,1,0.,24.0,0.,24.0
1979-07-11 11:04:44.260 ,5,0,0.,24.0,0.,24.0
1979-07-11 11:05:08.260 ,5,0,0.,24.0,0.,24.0
1979-07-11 11:05:32.260 ,5,0,0.,24.0,0.,24.0
1979-07-11 11:05:56.260 ,5,0,0.,24.0,0.,24.0
1979-07-11 11:06:20.260 ,5,0,0.,24.0,0.,24.0
1979-07-11 11:06:44.260 ,6,1,0.,24.0,0.,24.0
1979-07-11 11:07:08.260 ,6,0,0.,24.0,0.,24.0
1979-07-11 11:07:32.260 ,6,0,0.,24.0,0.,24.0
1979-07-11 11:07:56.260 ,6,0,0.,24.0,0.,24.0
1979-07-11 11:08:20.260 ,6,0,0.,24.0,0.,24.0
1979-07-11 11:08:44.260 ,6,0,0.,24.0,0.,24.0
1979-07-11 11:09:08.260 ,7,1,0.,24.0,0.,24.0
1979-07-11 11:09:32.260 ,7,0,0.,24.0,0.,24.0
1979-07-11 11:09:56.260 ,7,0,0.,24.0,0.,24.0
1979-07-11 11:10:20.260 ,7,0,0.,24.0,0.,24.0
1979-07-11 11:10:44.260 ,7,0,0.,24.0,0.,24.0
1979-07-11 11:11:32.260 ,7,1,0.,24.0,0.,24.0
1979-07-11 11:11:56.260 ,7,0,0.,24.0,0.,24.0
1979-07-11 11:12:20.260 ,7,0,0.,24.0,0.,24.0
1979-07-11 11:12:44.260 ,7,0,0.,24.0,0.,24.0
1979-07-11 11:13:08.260 ,7,0,0.,24.0,0.,24.0
1979-07-11 11:13:32.260 ,7,0,0.,24.0,0.,24.0
1979-07-11 11:13:56.260 ,6,1,0.,24.0,0.,24.0
1979-07-11 11:14:20.260 ,6,0,0.,24.0,0.,24.0
1979-07-11 11:14:44.260 ,6,0,0.,24.0,0.,24.0
1979-07-11 11:15:08.260 ,6,0,0.,24.0,0.,24.0
1979-07-11 11:15:32.260 ,6,0,0.,24.0,0.,24.0
1979-07-11 11:15:56.260 ,6,0,0.,24.0,0.,24.0
1979-07-11 11:16:20.260 ,5,1,0.,24.0,0.,24.0
1979-07-11 11:16:44.260 ,5,0,0.,24.0,0.,24.0
1979-07-11 11:17:08.260 ,5,0,0.,24.0,0.,24.0
1979-07-11 11:17:32.260 ,5,0,0.,24.0,0.,24.0
1979-07-11 11:17:56.260 ,5,0,0.,24.0,0.,24.0
1979-07-11 11:18:20.260 ,5,0,0.,24.0,0.,24.0
1979-07-11 11:18:44.260 ,4,1,0.,24.0,0.,24.0
1979-07-11 11:19:08.260 ,4,0,0.,24.0,0.,24.0
1979-07-11 11:19:32.260 ,4,0,0.,24.0,0.,24.0
1979-07-11 11:19:56.260 ,4,0,0.,24.0,0.,24.0
1979-07-11 11:20:20.260 ,4,0,0.,24.0,0.,24.0
1979-07-11 11:20:44.260 ,4,0,0.,24.0,0.,24.0
1979-07-11 11:21:08.260 ,3,1,0.,24.0,0.,24.0
1979-07-11 11:21:32.260 ,3,0,0.,24.0,0.,24.0
1979-07-11 11:21:56.260 ,3,0,0.,24.0,0.,24.0
1979-07-11 11:22:20.260 ,3,0,0.,24.0,0.,24.0
1979-07-11 11:22:44.260 ,3,0,0.,24.0,0.,24.0
1979-07-11 11:23:08.260 ,3,0,0.,24.0,0.,24.0
1979-07-11 11:23:32.260 ,2,1,0.,24.0,0.,24.0
1979-07-11 11:23:56.260 ,2,0,0.,24.0,0.,24.0
1979-07-11 11:24:20.260 ,2,0,0.,24.0,0.,24.0
1979-07-11 11:24:44.260 ,2,0,0.,24.0,0.,24.0
1979-07-11 11:25:08.260 ,2,0,0.,24.0,0.,24.0
1979-07-11 11:25:32.260 ,2,0,0.,24.0,0.,24.0
1979-07-11 11:25:56.260 ,1,1,0.,24.0,0.,24.0
1979-07-11 11:26:20.260 ,1,0,0.,24.0,0.,24.0
1979-07-11 11:26:44.260 ,1,0,0.,24.0,0.,24.0
1979-07-11 11:27:08.260 ,1,0,0.,24.0,0.,24.0
1979-07-11 11:27:32.260 ,1,0,0.,24.0,0.,24.0
1979-07-11 11:27:56.260 ,1,0,0.,24.0,0.,24.0
1979-07-11 11:28:20.260 ,0,1,0.,24.0,0.,24.0
1979-07-11 11:28:44.260 ,0,0,0.,24.0,0.,24.0
1979-07-11 11:29:08.260 ,0,0,0.,24.0,0.,24.0
1979-07-11 11:29:32.260 ,0,0,0.,24.0,0.,24.0
1979-07-11 11:29:56.260 ,0,0,0.,24.0,0.,24.0
1979-07-11 11:30:20.260 ,0,0,0.,24.0,0.,24.0
1979-07-11 11:30:44.260 ,0,1,0.,24.0,0.,24.0
1979-07-11 11:31:08.260 ,0,0,0.,24.0,0.,24.0
1979-07-11 11:31:32.260 ,0,0,0.,24.0,0.,24.0
1979-07-11 11:31:56.260 ,0,0,0.,24.0,0.,24.0
1979-07-11 11:32:20.260 ,0,0,0.,24.0,0.,24.0
1979-07-11 11:32:44.260 ,0,0,0.,24.0,0.,24.0
1979-07-11 11:33:08.260 ,1,1,0.,24.0,0.,24.0
1979-07-11 11:33:32.260 ,1,0,0.,24.0,0.,24.0
1979-07-11 11:33:56.260 ,1,0,0.,24.0,0.,24.0
1979-07-11 11:34:20.260 ,1,0,0.,24.0,0.,24.0
1979-07-11 11:34:44.260 ,1,0,0.,24.0,0.,24.0
1979-07-11 11:35:08.260 ,1,0,0.,24.0,0.,24.0
1979-07-11 11:35:32.260 ,2,1,0.,24.0,0.,24.0
1979-07-11 11:35:56.260 ,2,0,0.,24.0,0.,24.0
1979-07-11 11:36:20.260 ,2,0,0.,24.0,0.,24.0
1979-07-11 11:36:44.260 ,2,0,0.,24.0,0.,24.0
1979-07-11 11:37:08.260 ,2,0,0.,24.0,0.,24.0
1979-07-11 11:37:32.260 ,2,0,0.,24.0,0.,24.0
1979-07-11 11:37:56.260 ,3,1,0.,24.0,0.,24.0
1979-07-11 11:38:20.260 ,3,0,0.,24.0,0.,24.0
1979-07-11 11:38:44.260 ,3,0,0.,24.0,0.,24.0
1979-07-11 11:39:08.260 ,3,0,0.,24.0,0.,24.0
1979-07-11 11:39:32.260 ,3,0,0.,24.0,0.,24.0
1979-07-11 11:39:56.260 ,3,0,0.,24.0,0.,24.0
1979-07-11 11:40:20.260 ,4,1,0.,24.0,0.,24.0
1979-07-11 11:40:44.260 ,4,0,0.,24.0,0.,24.0
1979-07-11 11:41:08.260 ,4,0,0.,24.0,0.,24.0
1979-07-11 11:41:32.260 ,0,0,,0,,0
1979-07-11 11:41:56.260 ,0,0,0.,24.0,0.,24.0
1979-07-11 11:42:20.260 ,0,0,0.,24.0,0.,24.0
1979-07-11 11:42:44.260 ,5,1,0.,24.0,0.,24.0
1979-07-11 11:43:08.260 ,5,0,0.,24.0,0.,24.0
1979-07-11 11:43:32.260 ,5,0,0.,24.0,0.,24.0
1979-07-11 11:43:56.260 ,5,0,0.,24.0,0.,24.0
1979-07-11 11:44:20.260 ,5,0,0.,24.0,0.,24.0
1979-07-11 11:44:44.260 ,5,0,0.,24.0,0.,24.0
1979-07-11 11:45:08.260 ,6,1,0.,24.0,0.,24.0
1979-07-11 11:45:32.260 ,6,0,0.,24.0,0.,24.0
1979-07-11 11:45:56.260 ,6,0,0.,24.0,0.,24.0
1979-07-11 11:46:20.260 ,6,0,0.,24.0,0.,24.0
1979-07-11 11:46:44.260 ,6,0,0.,24.0,0.,24.0
1979-07-11 11:47:08.260 ,6,0,0.,24.0,0.,24.0
1979-07-11 11:47:32.260 ,7,1,0.,24.0,0.,24.0
1979-07-11 11:47:56.260 ,7,0,0.,24.0,0.,24.0
1979-07-11 11:48:20.260 ,7,0,0.,24.0,0.,24.0
1979-07-11 11:48:44.260 ,7,0,0.,24.0,0.,24.0
1979-07-11 11:49:08.260 ,7,0,0.,24.0,0.,24.0
1979-07-11 11:49:32.260 ,7,0,0.,24.0,0.,24.0
1979-07-11 11:49:56.260 ,0,0,0.,24.0,0.,24.0
1979-07-11 11:50:20.260 ,0,0,0.,24.0,0.,24.0
1979-07-11 11:50:44.260 ,0,0,0.,24.0,0.,24.0
1979-07-11 11:51:08.260 ,0,0,0.,24.0,0.,24.0
1979-07-11 11:51:32.260 ,0,0,0.,24.0,0.,24.0
1979-07-11 11:51:56.260 ,0,0,0.,24.0,0.,24.0
1979-07-11 11:52:20.260 ,6,1,0.,24.0,0.,24.0
1979-07-11 11:52:44.260 ,6,0,0.,24.0,0.,24.0
1979-07-11 11:53:08.260 ,6,0,0.,24.0,0.,24.0
1979-07-11 11:53:32.260 ,6,0,0.,24.0,0.,24.0
1979-07-11 11:53:56.260 ,6,0,0.,24.0,0.,24.0
1979-07-11 11:54:20.260 ,6,0,0.,24.0,0.,24.0
1979-07-11 11:54:44.260 ,5,1,0.,24.0,0.,24.0
1979-07-11 11:55:08.260 ,5,0,0.,24.0,0.,24.0
1979-07-11 11:55:32.260 ,5,0,0.,24.0,0.,24.0
1979-07-11 11:55:56.260 ,5,0,0.,24.0,0.,24.0
1979-07-11 11:56:20.260 ,5,0,0.,24.0,0.,24.0
1979-07-11 11:56:44.260 ,5,0,0.,24.0,0.,24.0
1979-07-11 11:57:08.260 ,4,1,0.,24.0,0.,24.0
1979-07-11 11:57:32.260 ,4,0,0.,24.0,0.,24.0
1979-07-11 11:57:56.260 ,4,0,0.,24.0,0.,24.0
1979-07-11 11:58:20.260 ,4,0,0.,24.0,0.,24.0
1979-07-11 11:58:44.260 ,4,0,0.,24.0,0.,24.0
1979-07-11 11:59:08.260 ,4,0,0.,24.0,0.,24.0
1979-07-11 11:59:32.260 ,3,1,0.,24.0,0.,24.0
1979-07-11 11:59:56.260 ,3,0,0.,24.0,0.,24.0
1979-07-11 12:00:20.260 ,3,0,0.,24.0,0.,24.0
